Location: Hamburg
(53.5500°N, 10.0000°E)
Time: 10:05:54
(UTC+01:00)

Vanguard 1 Rocket - Visible Passes

Search period start: 31 October 2014 00:00
Search period end: 10 November 2014 00:00
Orbit: 654 x 4226 km, 34.3° (Epoch: 26 October)

Date Brightness Start Highest point End Pass type
(mag) Time Alt. Az. Time Alt. Az. Time Alt. Az.
31 Oct 10.9 01:02:00 14° ESE 01:02:00 14° ESE 01:03:20 10° ESE visible
31 Oct 10.1 03:19:20 30° S 03:19:20 30° S 03:26:29 10° SE visible
31 Oct 10.5 05:36:40 12° WSW 05:40:03 13° SW 05:44:21 10° SSW visible
31 Oct 11.4 20:51:46 10° S 21:00:01 19° SSE 21:00:01 19° SSE visible
31 Oct 11.4 23:15:27 10° SW 23:17:22 13° SW 23:17:22 13° SW visible
01 Nov 10.4 02:12:38 25° SSE 02:12:38 25° SSE 02:17:03 10° SE visible
01 Nov 10.3 04:29:58 22° SW 04:30:01 22° SW 04:38:06 10° S visible
01 Nov 11.4 19:44:07 10° SSE 19:53:32 16° SE 19:53:32 16° SE visible
01 Nov 11.4 22:03:21 10° SSW 22:10:53 22° SSW 22:10:53 22° SSW visible
02 Nov 10.9 01:05:58 13° ESE 01:05:58 13° ESE 01:07:00 10° ESE visible
02 Nov 10.2 03:23:18 28° S 03:23:18 28° S 03:29:46 10° SSE visible
02 Nov 10.6 05:41:16 10° WSW 05:42:43 10° SW 05:44:06 10° SW visible
02 Nov 11.2 20:52:35 10° SSW 21:04:23 25° S 21:04:23 25° S visible
02 Nov 11.4 23:17:36 10° SW 23:21:44 17° SW 23:21:44 17° SW visible
03 Nov 10.5 02:16:40 22° SSE 02:16:40 22° SSE 02:20:30 10° SE visible
03 Nov 10.4 04:34:00 19° SW 04:34:00 19° SW 04:40:42 10° S visible
03 Nov 11.2 19:43:39 10° S 19:57:51 21° SE 19:57:51 21° SE visible
03 Nov 11.2 22:05:12 10° SW 22:15:12 26° SSW 22:15:12 26° SSW visible
04 Nov 11.0 01:10:03 12° SE 01:10:03 12° SE 01:10:32 10° ESE visible
04 Nov 10.4 03:27:24 24° S 03:27:24 24° S 03:32:51 10° SSE visible
04 Nov 11.4 18:38:13 10° SSE 18:47:53 14° SE 18:51:18 13° ESE visible
04 Nov 11.1 20:54:00 10° SSW 21:08:38 30° S 21:08:38 30° S visible
04 Nov 11.4 23:20:00 10° WSW 23:25:59 20° SW 23:25:59 20° SW visible
05 Nov 10.7 02:20:48 19° SSE 02:20:48 19° SSE 02:23:48 10° SE visible
05 Nov 10.6 04:38:09 16° SW 04:38:09 16° SW 04:42:49 10° SSW visible
05 Nov 11.1 19:44:17 10° S 20:01:55 26° SE 20:02:02 26° SE visible
05 Nov 11.1 22:07:23 10° SW 22:19:22 31° SSW 22:19:22 31° SSW visible
06 Nov 11.1 00:36:15 10° WSW 00:36:42 11° WSW 00:36:42 11° WSW visible
06 Nov 10.6 03:31:36 20° S 03:31:36 20° S 03:35:40 10° S visible
06 Nov 11.3 18:36:49 10° SSE 18:50:01 18° SE 18:55:22 17° ESE visible
06 Nov 10.9 20:55:52 10° SSW 21:12:42 35° S 21:12:42 35° S visible
06 Nov 11.4 23:22:35 10° WSW 23:30:03 23° SW 23:30:03 23° SW visible
07 Nov 10.8 02:25:03 15° SSE 02:25:03 15° SSE 02:26:55 10° SSE visible
07 Nov 10.8 04:42:24 12° SW 04:42:24 12° SW 04:44:07 10° SSW visible
07 Nov 11.0 19:45:38 10° SSW 20:04:16 30° SE 20:06:00 30° SE visible
07 Nov 11.0 22:09:49 10° SW 22:23:20 35° SSW 22:23:20 35° SSW visible
08 Nov 11.3 00:39:04 10° WSW 00:40:40 13° WSW 00:40:40 13° WSW visible
08 Nov 10.8 03:35:52 15° S 03:35:52 15° S 03:38:08 10° S visible
08 Nov 11.2 18:37:05 10° S 18:52:11 22° SE 18:59:15 20° ESE visible
08 Nov 10.8 20:58:05 10° SW 21:16:34 39° S 21:16:34 39° S visible
08 Nov 11.3 23:25:20 10° WSW 23:33:54 26° SW 23:33:54 26° SW visible
09 Nov 11.0 02:29:20 11° SSE 02:29:20 11° SSE 02:29:48 10° SSE visible
09 Nov 11.4 17:31:50 10° SSE 17:40:50 14° ESE 17:50:35 10° E visible
09 Nov 10.9 19:47:29 10° SSW 20:06:39 34° SSE 20:09:46 33° SE visible
09 Nov 11.0 22:12:29 10° WSW 22:27:05 38° SSW 22:27:05 38° SSW visible
